View from above orbital plane
|
View from above satellite
|
Ground track
|
The orbit data is extracted from the following two-line orbital elements,
1 18421U 87088A 21104.19055844 .00000859 00000-0 41000-4 0 9992
2 18421 82.5003 335.8305 0016443 100.1362 260.1728 15.17562899830150
Epoch (UTC): | 14 April 2021 04:34:24 |
Eccentricity: | 0.0016443 |
inclination: | 82.5003° |
perigee height: | 502 km |
apogee height: | 524 km |
right ascension of ascending node: | 335.8305° |
argument of perigee: | 100.1362° |
revolutions per day: | 15.17562899 |
mean anomaly at epoch: | 260.1728° |
orbit number at epoch: | 83015 |
The dashed part of the orbit path shows where the satellite is in the earth's shadow,
|
|